| time (UTC) | temp F | wind direction | speed MPH | gust MPH | rain 1hr in | rain 24hr in | rain mn in | humidity % | barometer mb |
| 20260510161558 | 59 | 36 | 0.0 | 0.0 | 0.06 | 0.90 | 0.71 | 92 | 1016.0 |
| 20260510160056 | 60 | 271 | 0.0 | 0.0 | 0.05 | 0.88 | 0.69 | 92 | 1018.2 |
| 20260510154558 | 60 | 360 | 0.0 | 0.0 | 0.04 | 0.87 | 0.68 | 92 | 1017.0 |
| 20260510153057 | 60 | 355 | 0.0 | 0.0 | 0.04 | 0.85 | 0.66 | 92 | 1016.2 |
| 20260510151549 | 60 | 28 | 0.0 | 0.0 | 0.03 | 0.84 | 0.65 | 92 | 1015.5 |
| 20260510150052 | 60 | 105 | 0.0 | 0.0 | 0.03 | 0.83 | 0.64 | 93 | 1015.1 |
| 20260510144557 | 60 | 105 | 0.0 | 0.0 | 0.03 | 0.83 | 0.64 | 92 | 1014.1 |
| 20260510143044 | 60 | 105 | 0.0 | 0.0 | 0.01 | 0.81 | 0.62 | 92 | 1013.7 |
| 20260510141543 | 60 | 106 | 0.0 | 0.0 | 0.02 | 0.81 | 0.62 | 92 | 1013.3 |
| 20260510140042 | 60 | 105 | 0.0 | 0.0 | 0.01 | 0.80 | 0.61 | 92 | 1013.3 |
| 20260510134543 | 60 | 65 | 0.0 | 0.0 | 0.04 | 0.80 | 0.61 | 92 | 1012.9 |
| 20260510133041 | 60 | 77 | 0.0 | 0.0 | 0.08 | 0.80 | 0.61 | 92 | 1013.6 |
| 20260510131544 | 60 | 5 | 0.0 | 0.0 | 0.12 | 0.79 | 0.60 | 92 | 1014.6 |
| 20260510130040 | 60 | 57 | 0.0 | 0.0 | 0.21 | 0.79 | 0.60 | 92 | 1013.9 |
| 20260510124539 | 60 | 5 | 0.0 | 0.0 | 0.28 | 0.76 | 0.56 | 92 | 1014.0 |
| 20260510123039 | 60 | 22 | 0.0 | 0.0 | 0.28 | 0.72 | 0.53 | 92 | 1013.9 |
| 20260510121537 | 60 | 5 | 0.0 | 0.0 | 0.24 | 0.66 | 0.47 | 91 | 1014.1 |
| 20260510120037 | 60 | 334 | 0.0 | 0.0 | 0.16 | 0.57 | 0.39 | 90 | 1014.1 |
| 20260510114534 | 60 | 34 | 0.0 | 0.0 | 0.05 | 0.48 | 0.28 | 90 | 1013.7 |
| 20260510113038 | 60 | 13 | 0.0 | 0.0 | 0.03 | 0.44 | 0.24 | 91 | 1012.6 |
| 20260510111527 | 60 | 55 | 0.0 | 1.0 | 0.15 | 0.43 | 0.23 | 92 | 1011.6 |
| 20260510110038 | 61 | 105 | 0.0 | 0.0 | 0.20 | 0.43 | 0.23 | 92 | 1010.7 |
| 20260510104523 | 61 | 5 | 0.0 | 0.0 | 0.22 | 0.43 | 0.23 | 92 | 1009.5 |
| 20260510103023 | 61 | 30 | 0.0 | 0.0 | 0.20 | 0.40 | 0.20 | 91 | 1008.7 |
| 20260510101520 | 61 | 288 | 0.0 | 0.0 | 0.07 | 0.27 | 0.07 | 91 | 1008.8 |
| 20260510100020 | 62 | 263 | 0.0 | 0.0 | 0.02 | 0.22 | 0.02 | 90 | 1009.1 |
| 20260510094532 | 62 | 338 | 0.0 | 0.0 | 0.01 | 0.21 | 0.01 | 89 | 1008.6 |
| 20260510093017 | 62 | 145 | 0.0 | 0.0 | 0.00 | 0.20 | 0.00 | 88 | 1008.2 |
| 20260510091517 | 62 | 145 | 0.0 | 0.0 | 0.00 | 0.20 | 0.00 | 88 | 1008.6 |
| 20260510090016 | 62 | 145 | 0.0 | 0.0 | 0.00 | 0.20 | 0.00 | 87 | 1008.3 |
| 20260510084514 | 62 | 157 | 0.0 | 0.0 | 0.00 | 0.20 | 0.00 | 86 | 1008.3 |
| 20260510083013 | 62 | 129 | 0.0 | 0.0 | 0.00 | 0.20 | 0.00 | 85 | 1008.7 |
| 20260510081513 | 62 | 142 | 0.0 | 0.0 | 0.00 | 0.20 | 0.00 | 84 | 1008.6 |
| 20260510080032 | 62 | 121 | 0.0 | 0.0 | 0.00 | 0.20 | 0.00 | 83 | 1008.7 |
| 20260510074512 | 62 | 146 | 0.0 | 0.0 | 0.00 | 0.20 | 0.00 | 83 | 1008.5 |
| 20260510073013 | 62 | 151 | 0.0 | 0.0 | 0.00 | 0.20 | 0.00 | 83 | 1008.6 |
| 20260510071513 | 62 | 149 | 0.0 | 0.0 | 0.00 | 0.20 | 0.00 | 84 | 1008.4 |
| 20260510070009 | 61 | 115 | 0.0 | 0.0 | 0.00 | 0.20 | 0.00 | 85 | 1008.5 |
| 20260510064510 | 61 | 128 | 0.0 | 0.0 | 0.00 | 0.20 | 0.00 | 86 | 1009.3 |
| 20260510063006 | 61 | 103 | 0.0 | 0.0 | 0.00 | 0.20 | 0.00 | 86 | 1010.4 |
| 20260510061506 | 62 | 69 | 0.0 | 0.0 | 0.00 | 0.20 | 0.00 | 85 | 1011.2 |
| 20260510060005 | 61 | 113 | 0.0 | 0.0 | 0.00 | 0.20 | 0.00 | 85 | 1010.9 |
| 20260510054601 | 61 | 76 | 0.0 | 0.0 | 0.00 | 0.20 | 0.00 | 86 | 1010.7 |
| 20260510053058 | 61 | 46 | 0.0 | 0.0 | 0.01 | 0.20 | 0.00 | 87 | 1010.0 |
| 20260510051604 | 62 | 346 | 0.0 | 0.0 | 0.12 | 0.20 | 0.00 | 87 | 1010.5 |
| 20260510044546 | 64 | 53 | 0.0 | 0.0 | 0.19 | 0.20 | 0.20 | 86 | 1009.1 |
| 20260510043048 | 65 | 355 | 0.0 | 0.0 | 0.18 | 0.19 | 0.19 | 82 | 1010.0 |
| 20260510041546 | 68 | 360 | 0.0 | 0.0 | 0.07 | 0.08 | 0.08 | 74 | 1011.9 |
| 20260510040042 | 72 | 267 | 0.0 | 1.0 | 0.01 | 0.02 | 0.02 | 61 | 1010.9 |
| 20260510034538 | 74 | 21 | 0.0 | 0.0 | 0.00 | 0.01 | 0.01 | 51 | 1008.9 |
| 20260510033047 | 75 | 103 | 0.0 | 0.0 | 0.00 | 0.01 | 0.01 | 51 | 1007.1 |
| 20260510031539 | 75 | 121 | 0.0 | 0.0 | 0.00 | 0.01 | 0.01 | 50 | 1005.6 |
| 20260510030036 | 76 | 146 | 0.0 | 0.0 | 0.00 | 0.01 | 0.01 | 49 | 1005.5 |
| 20260510024536 | 77 | 80 | 0.0 | 0.0 | 0.00 | 0.01 | 0.01 | 48 | 1005.9 |
| 20260510023035 | 77 | 133 | 0.0 | 0.0 | 0.00 | 0.01 | 0.01 | 48 | 1005.9 |
| 20260510021611 | 77 | 156 | 0.0 | 0.0 | 0.00 | 0.01 | 0.01 | 48 | 1005.7 |
| 20260510020035 | 78 | 153 | 0.0 | 0.0 | 0.00 | 0.01 | 0.01 | 48 | 1005.0 |
| 20260510014547 | 78 | 133 | 0.0 | 0.0 | 0.00 | 0.01 | 0.01 | 46 | 1004.3 |
| 20260510013034 | 79 | 121 | 0.0 | 0.0 | 0.00 | 0.01 | 0.01 | 45 | 1004.1 |
| 20260510011533 | 79 | 145 | 0.0 | 0.0 | 0.00 | 0.01 | 0.01 | 44 | 1004.3 |
| 20260510010042 | 80 | 159 | 0.0 | 0.0 | 0.00 | 0.01 | 0.01 | 43 | 1004.1 |
| 20260510004531 | 81 | 138 | 0.0 | 0.0 | 0.00 | 0.01 | 0.01 | 42 | 1004.4 |
| 20260510003031 | 81 | 123 | 0.0 | 0.0 | 0.00 | 0.01 | 0.01 | 43 | 1004.3 |
| 20260510001533 | 82 | 156 | 0.0 | 0.0 | 0.00 | 0.01 | 0.01 | 42 | 1004.4 |
| 20260510000030 | 83 | 154 | 0.0 | 0.0 | 0.00 | 0.01 | 0.01 | 41 | 1004.4 |
| 20260509234528 | 84 | 154 | 0.0 | 0.0 | 0.00 | 0.01 | 0.01 | 38 | 1004.4 |
| 20260509233032 | 85 | 148 | 0.0 | 0.0 | 0.00 | 0.01 | 0.01 | 38 | 1004.5 |
| 20260509231524 | 85 | 155 | 0.0 | 0.0 | 0.00 | 0.01 | 0.01 | 34 | 1004.5 |
| 20260509230034 | 85 | 163 | 0.0 | 0.0 | 0.00 | 0.01 | 0.01 | 34 | 1004.7 |
| 20260509224522 | 85 | 104 | 0.0 | 0.0 | 0.00 | 0.22 | 0.01 | 34 | 1004.9 |
| 20260509223018 | 86 | 152 | 0.0 | 0.0 | 0.00 | 0.22 | 0.01 | 35 | 1005.2 |
| 20260509221517 | 86 | 145 | 0.0 | 1.0 | 0.00 | 0.22 | 0.01 | 32 | 1005.4 |
| 20260509220019 | 86 | 104 | 0.0 | 0.0 | 0.00 | 0.22 | 0.01 | 32 | 1005.5 |
| 20260509214515 | 86 | 13 | 0.0 | 0.0 | 0.00 | 0.22 | 0.01 | 36 | 1005.4 |
| 20260509213018 | 86 | 146 | 0.0 | 0.0 | 0.00 | 0.22 | 0.01 | 35 | 1005.5 |
| 20260509211512 | 85 | 200 | 0.0 | 0.0 | 0.00 | 0.22 | 0.01 | 35 | 1005.8 |
| 20260509210010 | 85 | 173 | 0.0 | 0.0 | 0.00 | 0.22 | 0.01 | 34 | 1005.9 |
| 20260509204509 | 85 | 180 | 0.0 | 0.0 | 0.00 | 0.22 | 0.01 | 36 | 1006.0 |
| 20260509203007 | 86 | 141 | 0.0 | 0.0 | 0.00 | 0.22 | 0.01 | 35 | 1006.1 |
| 20260509201510 | 85 | 138 | 0.0 | 0.0 | 0.00 | 0.22 | 0.01 | 34 | 1006.3 |
| 20260509200001 | 85 | 156 | 0.0 | 0.0 | 0.00 | 0.22 | 0.01 | 35 | 1006.5 |
| 20260509194602 | 85 | 79 | 0.0 | 0.0 | 0.00 | 0.22 | 0.01 | 33 | 1006.7 |
| 20260509193057 | 84 | 103 | 0.0 | 0.0 | 0.00 | 0.22 | 0.01 | 35 | 1006.9 |
| 20260509191607 | 84 | 81 | 0.0 | 0.0 | 0.00 | 0.22 | 0.01 | 36 | 1007.0 |
| 20260509190054 | 84 | 71 | 0.0 | 0.0 | 0.00 | 0.22 | 0.01 | 35 | 1007.2 |
| 20260509184558 | 83 | 126 | 0.0 | 0.0 | 0.00 | 0.22 | 0.01 | 37 | 1007.5 |
| 20260509183055 | 83 | 119 | 0.0 | 0.0 | 0.00 | 0.22 | 0.01 | 35 | 1007.6 |
| 20260509181553 | 83 | 307 | 0.0 | 0.0 | 0.00 | 0.22 | 0.01 | 40 | 1007.8 |
| 20260509180055 | 83 | 152 | 0.0 | 0.0 | 0.00 | 0.22 | 0.01 | 37 | 1008.0 |
| 20260509174547 | 82 | 140 | 0.0 | 0.0 | 0.00 | 0.22 | 0.01 | 43 | 1008.2 |
| 20260509173053 | 81 | 91 | 0.0 | 0.0 | 0.00 | 0.22 | 0.01 | 41 | 1008.4 |
| 20260509171540 | 80 | 161 | 0.0 | 0.0 | 0.00 | 0.22 | 0.01 | 43 | 1008.5 |
| 20260509170033 | 79 | 142 | 0.0 | 0.0 | 0.00 | 0.22 | 0.01 | 52 | 1008.7 |
| 20260509164529 | 77 | 165 | 0.0 | 0.0 | 0.00 | 0.22 | 0.01 | 58 | 1008.6 |
| 20260509163029 | 77 | 149 | 0.0 | 0.0 | 0.00 | 0.22 | 0.01 | 63 | 1009.0 |